Regional Weather Roundup
Issued by NWS Green Bay, WI

Home | Current Version | Previous Version | Graphics & Text | Print | Product List | Glossary Off
Versions: 1 2 3 4 5 6 7 8 9 10 11 12 13 14 15 16 17 18 19 20 21 22 23 24 25 26 27 28 29 30 31 32 33 34 35 36 37 38 39 40 41 42 43 44 45 46 47 48 49 50

000
ASUS43 KGRB 020110
RWRGRB

NORTH-CENTRAL AND NORTHEAST WISCONSIN REGIONAL WEATHER ROUNDUP
NATIONAL WEATHER SERVICE GREEN BAY WI
800 PM CDT WED OCT 01 2014

WIZ005-009-010>012-018-019-020200-
NORTH CENTRAL WISCONSIN

CITY           SKY/WX    TMP DP  RH WIND       PRES   REMARKS
IRONWOOD       NOT AVBL
MANITOWISH WTR DRIZZLE   53  53 100 S5        29.86R
ARBOR VITAE    LGT RAIN  57  55  93 S5        29.87R
EAGLE RIVER    LGT RAIN  54  51  92 S6        29.88R
LAND O LAKES   LGT RAIN  54  51  90 S7        29.88R
RHINELANDER    LGT RAIN  55  52  89 S5        29.89R
PHILLIPS       CLOUDY    54  53  96 S6        29.86R
ANTIGO         CLOUDY    54  52  93 SE15      29.90S
TOMAHAWK       CLOUDY    55  52  90 SE5       29.87S
MERRILL        CLOUDY    57  54  91 SE8       29.87S
$$

WIZ013-073-020200-
NORTHEAST WISCONSIN

CITY           SKY/WX    TMP DP  RH WIND       PRES   REMARKS
IRON MOUNTAIN  CLOUDY    54  49  83 SE7       29.91R
MARINETTE      NOT AVBL
OCONTO         CLOUDY    55  53  92 SE7       29.93S
$$

WIZ017-030-035>037-045-020200-
CENTRAL WISCONSIN

CITY           SKY/WX    TMP DP  RH WIND       PRES   REMARKS
MEDFORD        CLOUDY    55  53  91 SE7       29.86R
WAUSAU         CLOUDY    58  52  80 SE7       29.87R
MOSINEE        CLOUDY    57  55  94 SE7       29.88S
MARSHFIELD     LGT RAIN  58  54  86 SE6       29.86S
WISC RAPIDS    CLOUDY    60  55  83 E6        29.88S
STEVENS POINT  CLOUDY    57  51  80 E7        29.89R
WAUPACA        CLOUDY    60  52  75 E12       29.90S
SHAWANO        CLOUDY    57  53  84 SE8       29.92S
CLINTONVILLE   CLOUDY    55  52  88 SE6       29.91R
$$

WIZ038-039-048-051-020200-
FOX VALLEY

CITY           SKY/WX    TMP DP  RH WIND       PRES   REMARKS
NWS GREEN BAY  CLOUDY    56  51  84 SE12      29.94R
APPLETON       CLOUDY    57  50  77 SE16      29.92R
OSHKOSH        CLOUDY    58  52  80 SE10      29.91R
FOND DU LAC    CLOUDY    57  51  80 S10       29.91S
$$

WIZ022-050-052-020200-
EAST CENTRAL WISCONSIN

CITY           SKY/WX    TMP DP  RH WIND       PRES   REMARKS
STURGEON BAY   NOT AVBL
MANITOWOC      NOT AVBL
SHEBOYGAN      CLOUDY    56  52  86 SE5       29.94R
$$

LMZ563-521-522-541>543-020200-
LAKESHORE

STATION/POSITION TIME  TEMP    WIND        PRES    VSBY  WAVE
                       AIR SEA DIR/SP/G                  HT/PER
                 (UTC) (F)     (DEG/KT/KT) (MB)    (MI)  (FT/S)
SHEBOYGAN LKSHOR 0100   56 57  160/ 10/ 11 1014.4R
KEWAUNEE LKSHORE 0100   55     170/ 10/ 12 1013.3S
NORTHPORT PIER   0100   56     160/  6/ 12 1014.2S
N MID LAKE BUOY  0100   56 58  170/  8/ 10 1014.6F         1/ 3
CHAMBERS ISLAND  0100   56     160/  3/  9 1014.6R
MENOMINEE LKSHOR 0100   56     180/  8/ 10 1014.6S
$$


USA.gov is the U.S. government's official web portal to all federal, state and local government web resources and services.